Dallas County Lake Weather Center

Moon Phase Calendar



Dallas County Lake Water Level
Online Cameras

 


      

Current Conditions in Dallas
10/23/2020 10:55:03 PM

70°F
Feels Like 74
Clouds
Humidity
94%
Pressure
30.03"
Wind
4.7 mph (SE)
Dew Point
68°F
UV Index
6/10 (High)
Visibility
6 mi

Hourly Forecast

Date & Time Fri, Oct 23
10:00 PM
Fri, Oct 23
11:00 PM
Sat, Oct 24
12:00 AM
Sat, Oct 24
1:00 AM
Sat, Oct 24
2:00 AM
Sat, Oct 24
3:00 AM
Sat, Oct 24
4:00 AM
Sat, Oct 24
5:00 AM
Sat, Oct 24
6:00 AM
Sat, Oct 24
7:00 AM
Sat, Oct 24
8:00 AM
Sat, Oct 24
9:00 AM
Sat, Oct 24
10:00 AM
Sat, Oct 24
11:00 AM
Sat, Oct 24
12:00 PM
Sat, Oct 24
1:00 PM
Sat, Oct 24
2:00 PM
Sat, Oct 24
3:00 PM
Sat, Oct 24
4:00 PM
Sat, Oct 24
5:00 PM
Sat, Oct 24
6:00 PM
Sat, Oct 24
7:00 PM
Sat, Oct 24
8:00 PM
Sat, Oct 24
9:00 PM
Sat, Oct 24
10:00 PM
Sat, Oct 24
11:00 PM
Sun, Oct 25
12:00 AM
Sun, Oct 25
1:00 AM
Sun, Oct 25
2:00 AM
Sun, Oct 25
3:00 AM
Sun, Oct 25
4:00 AM
Sun, Oct 25
5:00 AM
Sun, Oct 25
6:00 AM
Sun, Oct 25
7:00 AM
Sun, Oct 25
8:00 AM
Sun, Oct 25
9:00 AM
Sun, Oct 25
10:00 AM
Sun, Oct 25
11:00 AM
Sun, Oct 25
12:00 PM
Sun, Oct 25
1:00 PM
Sun, Oct 25
2:00 PM
Sun, Oct 25
3:00 PM
Sun, Oct 25
4:00 PM
Sun, Oct 25
5:00 PM
Sun, Oct 25
6:00 PM
Sun, Oct 25
7:00 PM
Sun, Oct 25
8:00 PM
Sun, Oct 25
9:00 PM
Condition
Clouds

Clouds

Clouds

Clouds

Clouds

Clouds

Clouds

Rain

Rain

Rain

Rain

Rain

Rain

Rain

Rain

Rain

Clouds

Rain

Rain

Rain

Rain

Rain

Clear

Clouds

Clouds

Clouds

Clouds

Clouds

Clouds

Clouds

Clouds

Clouds

Clouds

Clouds

Clouds

Clouds

Clouds

Clouds

Clouds

Clouds

Clouds

Clouds

Clouds

Clouds

Clouds

Clouds

Clouds

Clouds
Temperature 70°F70°F69°F69°F69°F69°F69°F68°F67°F68°F68°F69°F69°F69°F71°F73°F76°F77°F77°F75°F71°F69°F68°F68°F67°F66°F66°F65°F65°F65°F65°F66°F66°F66°F67°F67°F68°F69°F70°F72°F73°F73°F72°F72°F70°F69°F68°F66°F
Feels Like 73°F74°F73°F73°F73°F73°F72°F72°F72°F73°F73°F73°F73°F73°F75°F78°F81°F83°F84°F82°F77°F74°F73°F72°F71°F70°F70°F69°F69°F68°F69°F70°F71°F71°F71°F72°F72°F73°F74°F76°F77°F77°F76°F76°F74°F72°F71°F70°F
Cloudiness 40%40%37%36%83%91%95%96%97%97%100%100%100%100%100%100%99%81%64%53%47%39%7%13%19%21%21%23%44%49%56%64%71%76%100%100%100%100%100%100%100%100%100%100%100%97%73%60%
Visibility 6 mi6 mi6 mi6 mi6 mi6 mi6 mi6 mi6 mi6 mi6 mi6 mi6 mi6 mi6 mi6 mi6 mi6 mi6 mi6 mi6 mi6 mi6 mi6 mi6 mi6 mi6 mi6 mi6 mi3 mi2 mi4 mi6 mi6 mi6 mi6 mi6 mi6 mi6 mi6 mi6 mi6 mi6 mi6 mi6 mi6 mi6 mi6 mi
Precipitation 7%1%1%3%26%37%45%61%96%100%96%96%96%96%100%96%76%92%96%100%100%97%24%17%13%12%8%8%0%0%0%0%0%0%0%0%0%0%0%0%7%4%0%0%0%0%0%0%
Humidity 94%91%91%92%93%92%93%95%97%97%97%97%95%94%90%85%79%77%77%81%90%93%94%96%97%97%98%98%98%98%97%97%97%96%96%94%92%89%86%82%76%74%75%77%77%78%80%83%
Dew Point 68°F67°F67°F67°F67°F67°F67°F67°F67°F67°F67°F68°F68°F68°F68°F69°F69°F70°F70°F69°F68°F67°F67°F66°F66°F66°F65°F65°F65°F65°F65°F65°F65°F65°F66°F66°F66°F66°F66°F66°F65°F64°F64°F64°F63°F62°F62°F61°F
Pressure 30.03"30.03"29.97"29.97"29.97"29.97"29.97"29.97"29.97"29.97"29.97"29.97"29.97"29.97"29.94"29.94"29.91"29.88"29.85"29.85"29.88"29.88"29.91"29.91"29.94"29.94"29.91"29.91"29.91"29.91"29.91"29.91"29.91"29.94"29.94"29.97"29.97"29.97"29.97"29.94"29.94"29.91"29.91"29.91"29.91"29.94"29.94"29.97"
Wind Speed 4.9 mph4.1 mph4.2 mph4 mph4 mph4.1 mph4.2 mph3.3 mph2.2 mph1.9 mph2 mph4.3 mph4.4 mph4.8 mph4.9 mph4.1 mph4.5 mph2.6 mph1.3 mph0.8 mph1.2 mph1.5 mph2.1 mph3.2 mph3.4 mph3 mph2.7 mph2.5 mph2.8 mph3.2 mph3.2 mph2.8 mph1.6 mph2.3 mph2.1 mph2.4 mph2.8 mph2.8 mph3.4 mph2.7 mph2 mph2.8 mph2.8 mph1.7 mph1.4 mph1.1 mph1 mph0.7 mph
Wind
Direction
124°
SE
119°
ESE
118°
ESE
118°
ESE
126°
SE
116°
ESE
119°
ESE
127°
SE
166°
SSE
278°
W
329°
NNW
351°
N
35°
NE
69°
ENE
100°
E
86°
E
92°
E
86°
E
34°
NE
33°
NNE
37°
NE
354°
N
317°
NW
305°
NW
307°
NW
307°
NW
304°
NW
310°
NW
317°
NW
324°
NW
334°
NNW
333°
NNW
359°
N
310°
NW
301°
WNW
299°
WNW
290°
WNW
283°
WNW
280°
W
266°
W
242°
WSW
250°
WSW
254°
WSW
253°
WSW
254°
WSW
238°
WSW
259°
W
307°
NW

Daily Forecast

Date High Low Precip. Humidity
Today
Oct 23

Rain
85 °F
66 °F
51%
51%
Saturday
Oct 24

Rain
77 °F
67 °F
100%
85%
Sunday
Oct 25

Rain
72 °F
64 °F
20%
82%
Monday
Oct 26

Clear
83 °F
60 °F
0%
52%
Tuesday
Oct 27

Clouds
84 °F
64 °F
31%
58%
Wednesday
Oct 28

Rain
69 °F
65 °F
63%
88%
Thursday
Oct 29

Rain
65 °F
53 °F
100%
95%
Friday
Oct 30

Rain
64 °F
51 °F
100%
65%
Saturday
Oct 31

Clouds
60 °F
45 °F
0%
63%
Sunday
Nov 1

Rain
59 °F
52 °F
49%
93%
Monday
Nov 2

Clear
55 °F
45 °F
0%
52%
Tuesday
Nov 3

Clear
59 °F
38 °F
0%
54%
Wednesday
Nov 4

Clear
61 °F
37 °F
0%
40%
Thursday
Nov 5

Clear
64 °F
39 °F
0%
37%
Friday
Nov 6

Clear
69 °F
43 °F
0%
39%
Saturday
Nov 7

Clouds
72 °F
46 °F
0%
42%


Temperature 8-14 Day Outlook



Precipitation 8-14 Day Outlook




Quick Links
Dallas County Lake News
Dallas County Lake Photos
Dallas County Lake Videos




About Us
Contact Us
Site Map
Search Site
Advertise With Us
   
DallasCounty.LakesOnline.com
THE DALLAS COUNTY LAKE WEBSITE

Copyright 2020, Lakes Online
Privacy    |    Legal